国际通讯卫星 605星 (INTELSAT 605 (IS-605))

导读

INTELSAT 605是国际通信卫星组织(ITSO)第六代国际通信卫星系列成员,于1991年8月14日成功发射。作为国际通信卫星组织打造的全球商用通信卫星,该卫星运行于地球静止轨道,主要提供跨洋洲际电话、电报传输、广播电视转播、数据通信服务,还支持出租转发器信道服务,为全球通信网络互联互通提供重要支撑,助力构建覆盖全球的卫星通信体系。

基本信息
目录编号:
21653
目录名称:
INTELSAT 605
国际标识:
1991-055A
轨道中心:
EARTH
卫星名称:
国际通讯卫星 605星
卫星全名:
国际通讯卫星 605星 (INTELSAT 605 (IS-605))
卫星状态:
在轨 (已飞行12813 天)
发射日期:
1991-08-14 UTC
国别 :
(ITSO)
星等 :
--
该卫星已列入 空间交会检测服务 Space Conjunction Data Service (SCDS) ,当前飞行风险评估等级: 无高风险
轨道信息
数据来源 国际轨道数据 AOE轨道数据
星历时间 2026-09-11T22:43:17+0800
14小时前
查看轨道信息
2026-09-06T22:00:00+0800
5天前
查看轨道信息
半长轴 42430.804km 42431.146km
偏心率 0.0003183 0.0002861
轨道倾角 13.658° 13.653°
近地点辐角 214.827° 214.826°
升交点赤经 16.876° 16.915°
平近点角 147.202° 148.457°
近地点 36039.161km 36040.869km
远地点 36066.173km 36065.149km
周期 1449.712分钟 1449.729分钟
每日圈数 0.993301 0.993289
详细信息
卫星平台:
Intelsat VA
平衡模式:
三轴稳定
覆盖范围:
全球
运营商:
国际卫星通信公司
运营商所在国:
美国
制造商(研发单位):
休斯公司
制造商所在国:
美国
使用方式:
暂无
卫星简介
从1965年4月至1984年3月,国际通信卫星组织发射了5代、6种不同性能的卫星共计35颗,除6颗卫星因运载火箭和远地点发动机故障而发射失败外,其余29颗卫星均被送到了预定的静止轨道位置。1984年8月前后,国际通信卫星组织利用部署在大西洋、太平洋、印度洋上空的15颗国际通信卫星,为遍布世界各地170多个国家或地区提供电话、电传、电报、电视和数据传输等电信业务;该卫星已退役。
2D轨道图
3D轨道图
轨道高度分析图
轨道倾角分析图
轨道综合分析图
查看轨道综合分析图
与全量物体交会距离演化趋势
与全量物体交会风险概率演化趋势